Weather in Belaya Rechka

Russia / The Kabardino-Balkar Republic     43°26′03″N   43°32′09″E
temp.,
°C
wind,
m/s
gust,
m/s
humid.,
%
clouds,
%
prec.,
mm/h
press.,
hPa
HPBL,
m
17 may, mon
mon1700:00+18sw2249100 0.0 100529
03:00+16sw324592 0.0 100531
06:00+17sw22510 0.0 100532
09:00+24ne324315 0.0 1004542
12:00+24nne3249100 0.0 1005805
15:00+24nne3355100 0.0 10031220
18:00+16wsw2280100 3.4 100532
21:00+15w3375100 3.4 100743
18 may, tue
tue1800:00+14s1178100 0.3 100918
03:00+12w1195100 1.7 101041
06:00+13sse1196100 2.9 101172
09:00+13sse0291100 4.8 1012242
12:00+15ese218192 0.8 1013689
15:00+17ene227586 1.4 1012849
18:00+16ese127924 0.2 1012524
21:00+12sw22925 0.2 101326
19 may, wed
wed1900:00+11sw32860 0.0 101231
03:00+10sw32723 0.0 101032
06:00+13ssw2269100 0.0 100947
09:00+15nne33752 0.0 1010385
12:00+18nnw556990 0.3 10121182
15:00+14nnw3487100 1.1 1015515
18:00+12ne1197100 1.9 1017189
21:00+12sse129645 2.1 101871
20 may, thu
thu2000:00+10s229379 0.0 101830
03:00+8sw328451 0.0 101832
06:00+10sw22830 0.0 101856
09:00+16ese44615 0.0 10171020
12:00+19e44575 0.0 10161113
15:00+20e44565 0.0 10161104
18:00+18ese34690 0.0 1016453
21:00+13sw32840 0.0 101726
21 may, fri
fri2100:00+12sw32590 0.0 101622
03:00+12sw22470 0.0 101515
06:00+14sw11540 0.0 101514
09:00+20ene22460 0.0 1014315
12:00+23ene33520 0.0 1014620
15:00+23e33560 0.0 1014754
18:00+22e23720 0.0 1014261
21:00+15wsw11880 0.0 101512